Location: De Greiden
(52.9496°N, 5.9137°E)
Time: 22:21:40
(UTC+00:00)

ATLAS 5 CENTAUR R/B - Pass Details

Date: 24 January 2021
Orbit: 511 x 1147 km, 63.3° (Epoch: 16 February)

Event Time Altitude Azimuth Distance (km) Brightness Sun altitude
Rises 19:08:57 0° 284° (WNW) 2,840 6.2 -27.1°
Reaches altitude 10° 19:11:23 10° 298° (WNW) 2,021 5.0 -27.5°
Enters shadow 19:15:08 25° 353° (N) 1,383 3.4 -28.0°
